Location: Beuerbach
(48.1459°N, 10.9174°E)
Time: 02:02:48
(UTC+00:00)

COSMOS 2406 - Pass Details

Date: 23 May 2024
Orbit: 843 x 862 km, 71.0° (Epoch: 13 June)

Event Time Altitude Azimuth Distance (km) Brightness Sun altitude
Exits shadow 01:19:32 18° 244° (WSW) 1,995 4.7 -15.6°
Maximum altitude 01:23:27 42° 307° (NW) 1,223 4.1 -15.3°
Drops below altitude 10° 01:28:54 10° 18° (NNE) 2,509 6.9 -14.8°
Sets 01:31:31 0° 25° (NNE) 3,448 8.2 -14.6°
